格洛纳斯-774 COSMOS 2206 [GLONASS]

导读 | 豆包AI

COSMOS 2206又称格洛纳斯-774,是独联体(CIS)俄罗斯发射的GLONASS全球导航卫星,于1992年7月30发射入轨。该卫星运行于中地球轨道,采取三轴稳定模式,与其他卫星协同提供全球定位导航服务,增强系统覆盖范围与定位精度。卫星因燃料耗尽已退役,目前仍在轨运行,被列为潜在空间碎片。

基本信息
目录编号:
22056
目录名称:
COSMOS 2206 (GLONASS)
国际标识:
1992-047A
轨道中心:
EARTH
卫星名称:
格洛纳斯-774
卫星全名:
格洛纳斯-774 COSMOS 2206 [GLONASS]
卫星状态:
在轨 (已飞行12280 天)
发射日期:
1992-07-30 UTC
国别 :
俄罗斯(独联体) (CIS)
星等 :
--
轨道信息
数据来源 国际轨道数据
星历时间: 2026-03-13T10:04:43+0800
23小时前
查看轨道信息
半长轴: 25507.602km
偏心率: 0.0009489
轨道倾角: 64.204°
近地点辐角 249.445°
升交点赤经 305.483°
平近点角 284.705°
近地点: 19105.26km
远地点: 19153.67km
周期: 675.716分钟
每日圈数: 2.131073
详细信息
平衡模式:
三轴稳定
覆盖范围:
全球
运营商:
列舍特涅夫卫星信息系统
运营商所在国:
俄罗斯
制造商(研发单位):
列舍特涅夫卫星信息系统
制造商所在国:
俄罗斯
使用方式:
暂无
卫星简介
格洛纳斯(GLONASS )是苏联/俄罗斯研制卫星导航系统。标准配置为24颗卫星,其中18颗卫星就能保证该系统为俄罗斯境内用户提供全部服务。该卫星已退役。
2D轨道图
3D轨道图
轨道高度分析图
轨道倾角分析图
轨道综合分析图
查看轨道综合分析图